Wind_Speed
78 76 73 75 80 81 85 85 93 85 80 79 88 90 100 94 92 98 83 81 83 74 66 66 76 80 88
85 81 76 76 80 89 92 94 94 87 87 91 92 99 95 101 101 95 77 70 74 66 71 79 83 93 93
79 81 86 86 77 78 88 86 86 87 93 98 102 102 106 107 95 77 68 77 70 75 84 90 94 98 93
82 92 94 89 86 87 84 89 91 97 102 103 111 108 94 103 77 78 71 76 81 87 91 96 99 101 80
86 85 90 97 98 98 105 109 107 110 114 110 100 91 98 94 78 72 79 84 89 95 100 101 99 92 70
97 97 99 101 105 104 105 112 117 103 105 105 106 86 76 70 75 84 85 88 95 99 99 103 95 73 73
88 97 98 104 106 103 105 103 114 118 121 102 93 74 71 73 83 88 91 92 94 98 104 97 76 74 74
112 108 103 100 102 107 110 116 121 124 107 83 81 77 81 84 91 96 100 101 105 108 103 77 77 75 77
107 113 116 113 113 120 123 132 108 102 78 77 82 85 90 98 101 102 102 104 107 102 85 80 79 78 82
115 115 122 121 130 128 122 115 106 82 87 92 92 94 97 100 101 104 104 104 91 84 82 82 82 82 83
125 125 126 121 119 123 103 89 89 96 95 93 95 99 101 105 103 107 99 100 82 80 81 83 82 82 83
114 116 108 96 90 88 84 90 93 97 99 100 101 105 105 104 104 107 102 86 83 82 83 85 84 84 87
80 83 85 88 93 92 95 98 101 103 106 105 105 106 105 109 96 85 82 85 83 84 86 86 86 89 91
81 88 91 95 95 99 101 99 103 106 108 108 108 113 102 87 85 85 83 84 86 87 88 88 90 92 93
93 97 100 99 100 103 101 101 108 109 102 97 90 88 89 89 88 87 85 87 88 89 89 89 93 92 94
99 97 100 102 101 97 96 95 94 94 94 96 96 93 92 90 88 87 88 88 88 89 91 91 94 95 96
89 90 92 93 94 95 96 96 97 98 98 97 98 96 93 92 93 93 91 92 92 92 95 97 97 98 97
Wind_Direction
273 272 273 275 277 277 281 281 284 284 283 284 287 293 301 299 300 299 302 304 307 307 309 309 303 302 304
271 268 272 276 272 275 277 280 285 282 283 287 290 297 297 303 302 303 307 304 302 305 300 299 303 309 310
256 260 267 271 265 264 277 280 278 278 283 288 293 299 300 300 300 302 299 306 297 297 302 302 307 310 310
256 255 260 259 267 271 271 275 276 281 284 288 292 298 299 297 291 291 293 298 296 299 302 302 310 311 309
256 256 256 263 269 269 271 273 277 282 286 290 297 289 294 292 296 292 293 295 296 300 301 307 307 309 306
254 254 256 262 267 269 275 276 278 289 292 292 294 287 287 288 285 294 295 298 298 301 304 306 307 304 309
253 256 259 262 267 276 272 276 281 284 289 291 291 289 287 282 281 291 293 298 298 302 304 307 302 304 309
255 258 258 261 263 268 273 278 282 287 285 287 286 279 280 283 289 288 292 295 298 301 304 299 300 305 307
259 259 261 262 266 271 277 279 279 284 283 276 278 281 282 282 286 290 292 295 297 298 298 299 301 305 305
258 261 263 265 268 274 274 282 281 275 271 275 277 277 281 286 286 290 292 295 296 295 296 299 302 303 303
258 260 263 265 270 274 272 270 266 273 276 277 279 281 282 285 289 291 292 294 292 293 297 300 299 301 302
259 262 265 266 268 269 266 271 271 275 276 277 279 281 286 288 291 291 288 288 291 295 298 297 299 300 300
267 270 270 268 265 269 273 271 274 274 276 278 280 282 284 287 288 285 286 291 294 297 294 297 299 298 299
267 268 269 269 271 271 274 273 273 274 273 277 279 280 283 284 285 286 288 290 291 291 295 296 295 297 301
264 269 273 273 273 275 275 275 278 279 278 279 280 281 282 283 284 286 290 291 291 292 293 292 293 297 297
266 269 270 271 273 274 275 275 276 278 279 279 280 281 282 284 287 287 286 287 288 289 289 290 291 293 296
271 272 273 273 274 275 277 278 277 277 277 278 279 280 281 282 282 284 285 285 285 285 286 287 289 291 293
Height
10660 10653 10652 10649 10650 10647 10646 10644 10641 10641 10639 10637 10634 10631 10626 10619 10615 10610 10603 10598 10594 10589 10586 10581 10577 10571 10564
10643 10642 10636 10632 10628 10630 10628 10627 10629 10627 10624 10619 10617 10613 10607 10602 10596 10591 10584 10581 10579 10574 10572 10569 10562 10556 10545
10626 10624 10622 10617 10612 10611 10612 10612 10611 10608 10606 10602 10599 10594 10587 10585 10579 10575 10570 10567 10565 10561 10555 10549 10543 10535 10527
10609 10608 10603 10596 10596 10597 10597 10595 10593 10593 10589 10586 10583 10578 10570 10566 10561 10560 10557 10554 10549 10543 10537 10531 10524 10517 10509
10591 10590 10584 10581 10582 10578 10579 10581 10578 10574 10574 10572 10569 10560 10557 10551 10546 10544 10541 10536 10532 10526 10519 10513 10505 10497 10491
10571 10570 10566 10565 10565 10562 10563 10563 10561 10560 10554 10555 10546 10539 10540 10534 10531 10527 10523 10518 10513 10507 10501 10494 10487 10478 10473
10551 10550 10550 10548 10550 10554 10546 10543 10539 10537 10536 10531 10529 10523 10522 10518 10514 10510 10504 10499 10494 10488 10481 10475 10467 10461 10456
10535 10534 10535 10533 10531 10527 10525 10524 10520 10520 10514 10511 10508 10509 10506 10501 10497 10491 10486 10481 10474 10468 10462 10454 10449 10443 10438
10518 10515 10514 10517 10514 10507 10504 10505 10504 10503 10496 10497 10490 10488 10484 10480 10476 10471 10467 10460 10454 10450 10441 10437 10431 10426 10420
10496 10497 10494 10495 10494 10492 10486 10485 10484 10483 10477 10477 10474 10469 10466 10460 10456 10451 10445 10442 10435 10427 10422 10417 10411 10407 10402
10477 10477 10477 10476 10474 10472 10468 10465 10462 10461 10458 10455 10452 10447 10446 10443 10436 10429 10420 10417 10411 10409 10402 10396 10391 10388 10382
10459 10459 10458 10455 10452 10451 10447 10444 10442 10439 10435 10433 10433 10428 10423 10421 10414 10408 10402 10395 10391 10386 10380 10375 10371 10366 10361
10437 10436 10434 10433 10431 10429 10426 10423 10420 10415 10412 10410 10407 10403 10399 10400 10393 10387 10381 10375 10370 10364 10357 10352 10348 10342 10338
10416 10414 10412 10409 10406 10404 10400 10399 10395 10389 10386 10383 10380 10379 10375 10372 10369 10365 10361 10356 10349 10343 10337 10332 10326 10321 10316
10392 10388 10386 10383 10378 10375 10373 10368 10367 10362 10356 10352 10353 10351 10349 10348 10345 10340 10337 10333 10328 10322 10316 10310 10303 10301 10294
10367 10362 10357 10353 10350 10346 10344 10342 10338 10334 10331 10326 10322 10323 10323 10322 10319 10315 10310 10307 10304 10300 10292 10289 10282 10277 10273
10340 10336 10332 10327 10322 10317 10315 10314 10310 10306 10302 10298 10293 10294 10296 10295 10290 10287 10286 10282 10280 10276 10270 10265 10260 10255 10251